Terug naar catalogus

FENGYUN 1C DEB

ActiefPO
NORAD 31931·DEBRIS·🇨🇳 China

Gelanceerd May 10, 1999 vanaf Taiyuan Satellite Launch Center

Loading…

Volgende Passages (komende 24 uur)

TLE

VersSource: Space-Track

Epoch: Sep 14, 2026, 10:18 UTC

1 31931U 99025CMG 26257.42971165  .00000075  00000-0  11190-3 0  9996
2 31931  97.8126 151.9956 0420828 272.8512  82.4548 13.42975019689228

Volg FENGYUN 1C DEB in realtime met AllMySat

Download on the App Store